Location: Newark
(46.7000°N, 60.6000°W)
Time: 01:21:27
(UTC+00:00)

Vanguard 1 - Visible Passes

Search period start: 27 October 2020 00:00
Search period end: 06 November 2020 00:00
Orbit: 650 x 3833 km, 34.3° (Epoch: 26 October)

Date Brightness Start Highest point End Pass type
(mag) Time Alt. Az. Time Alt. Az. Time Alt. Az.
27 Oct 13.0 23:02:42 10° W 23:16:05 27° SW 23:24:57 10° S visible
28 Oct 13.1 20:55:51 10° W 21:15:46 47° SSW 21:28:21 10° SE visible
28 Oct 13.1 23:24:56 10° W 23:36:07 21° SW 23:44:03 10° S visible
29 Oct 13.2 21:17:18 10° W 21:36:19 42° SSW 21:48:31 10° SE visible
29 Oct 13.4 23:48:00 10° W 23:56:01 15° SW 00:02:17 10° SSW visible
30 Oct 13.2 21:38:53 10° W 21:56:43 36° SW 22:08:27 10° SSE visible
31 Oct 13.6 00:15:12 10° WSW 00:15:47 10° WSW 00:16:21 10° WSW visible
31 Oct 13.3 22:00:41 10° W 22:16:57 30° SW 22:28:04 10° SSE visible
01 Nov 13.5 22:22:50 10° W 22:37:03 24° SW 22:47:15 10° S visible
02 Nov 13.7 22:45:36 10° W 22:56:59 19° SW 23:05:44 10° SSW visible
03 Nov 13.9 23:09:54 10° W 23:16:47 13° WSW 23:22:40 10° SW visible
04 Nov 13.7 20:58:50 10° W 21:17:10 33° SW 21:30:38 10° SSE visible
05 Nov 13.8 21:20:52 10° W 21:37:20 27° SW 21:49:51 10° S visible
